Regional Weather Roundup
Issued by NWS Cleveland, OH

Home | Current Version | Previous Version | Text Only | Print | Product List | Glossary Off
Versions: 1 2 3 4 5 6 7 8 9 10 11 12 13 14 15 16 17 18 19 20 21 22 23 24 25 26 27 28 29 30 31 32 33 34 35 36 37 38 39 40 41 42 43 44 45 46 47 48 49 50

000
ASUS41 KCLE 260910
RWRCLE
OHIO REGIONAL WEATHER ROUNDUP
NATIONAL WEATHER SERVICE CLEVELAND, OH
500 AM EDT TUE MAY 26 2015

NOTE: "FAIR" INDICATES FEW OR NO CLOUDS BELOW 12,000 FEET WITH NO
SIGNIFICANT WEATHER AND/OR OBSTRUCTIONS TO VISIBILITY.

OHZ001>008-015>018-024>027-034-035-043-044-261000-
   NORTHWEST OHIO

CITY           SKY/WX    TMP DP  RH WIND       PRES   REMARKS
DEFIANCE       CLEAR     65  62  90 S7        30.04S
FINDLAY        MOCLDY    65  62  90 S7        30.06S
TOLEDO EXPRESS PTCLDY    64  62  93 S6        30.04S
TOLEDO EXEC    PTCLDY    65  61  87 S8        30.05F
LIMA           CLOUDY    67  63  87 S7        30.06F
$$

OHZ009>014-019>023-028>033-038-089-261000-
   NORTHEAST OHIO

CITY           SKY/WX    TMP DP  RH WIND       PRES   REMARKS
CLE-HOPKINS    MOCLDY    68  61  78 S8        30.10F
CLE-LAKEFRONT  MOCLDY    71  61  70 S9        30.07S
CUY CO. ARPT   NOT AVBL
LORAIN-ELYRIA  PTCLDY    66  61  84 S8        30.08F
ASHTABULA      MOCLDY    65  60  84 SE5       30.11S
AKRON-CANTON   CLOUDY    68  61  78 S6        30.12F
WOOSTER        MOCLDY    65  61  87 S6        30.12R
MANSFIELD      MOCLDY    66  62  87 S8        30.10S
YOUNGSTOWN     LGT RAIN  69  62  78 S6        30.13S
$$

OHZ042-051>053-060>062-070>072-077>081-261000-
  SOUTHWEST OHIO

CITY           SKY/WX    TMP DP  RH WIND       PRES   REMARKS
CINC-COVINGTON MOCLDY    65  63  93 S8        30.10S
CINC-LUNKEN    PTCLDY    64  63  96 S3        30.11R
HAMILTON       MOCLDY    67  64  90 CALM      30.11R
DAYTON         CLOUDY    69  65  86 S9        30.10S
WRIGHT-PAT AFB MOCLDY    67  64  90 S8        30.09S
DAYTON GENERAL MOCLDY    66  63  90 SW7       30.10S
WILMINGTON     PTCLDY    64  62  93 S6        30.11R
$$

OHZ036-037-039>041-045>050-054>059-063>069-073>076-082>088-261000-
  CENTRAL AND SOUTHEAST OHIO

CITY           SKY/WX    TMP DP  RH WIND       PRES   REMARKS
COLUMBUS       CLOUDY    67  64  90 S6        30.11R
OSU AIRPORT    PTCLDY    67  63  87 S8        30.10S
BOLTON FIELD   NOT AVBL
RICKENBACK AFB PTCLDY    65  63  91 S7        30.11R
NEWARK         CLOUDY    62  61  96 CALM      30.11S
MARION         CLOUDY    68  62  81 SW7       30.10R
LANCASTER      CLEAR     66  63  90 SE3       30.12R
ZANESVILLE     CLOUDY    65  63  93 SE5       30.12S
NEW PHILLY     CLOUDY    67  64  90 SE3       30.13S
$$



USA.gov is the U.S. government's official web portal to all federal, state and local government web resources and services.